User: anonymous   Login
Location: Unspecified
(48.7670°N, 0.0000°E)
Time: 12:21:08
(UTC+00:00)
Language:

Vanguard 2 Rocket - Orbit

View from above orbital plane
View from above orbital plane
View from above satellite
View from above satellite

Ground track
Ground track

The orbit data is extracted from the following two-line orbital elements,

1 00012U 59001B   21136.69732176 -.00000095  00000-0 -51986-4 0  9991
2 00012  32.8990 264.9299 1666408  28.0734 340.0435 11.44397600318165
Epoch (UTC): 16 May 2021 16:44:08
Eccentricity: 0.1666408
inclination: 32.8990°
perigee height: 554 km
apogee height: 3326 km
right ascension of ascending node: 264.9299°
argument of perigee: 28.0734°
revolutions per day: 11.44397600
mean anomaly at epoch: 340.0435°
orbit number at epoch: 31816

The dashed part of the orbit path shows where the satellite is in the earth's shadow,  

DLR